FW1983 Weather Reports


time (UTC)temp
C
wind
direction
speed
KPH
gust
KPH
rain 1hr
cm
rain 24hr
cm
rain mn
cm
humidity
%
barometer
mb
20260906113037 21 68 0.0 3.2 0.00 0.00 0.00 86 1016.4
20260906111517 21 69 0.0 1.6 0.00 0.00 0.00 86 1016.3
20260906110018 21 69 0.0 0.0 0.00 0.00 0.00 86 1016.2
20260906104520 21 69 0.0 4.8 0.00 0.00 0.00 86 1016.1
20260906103009 21 69 0.0 3.2 0.00 0.00 0.00 85 1015.6
20260906101508 21 69 0.0 1.6 0.00 0.00 0.00 85 1015.6
20260906100015 21 69 0.0 4.8 0.00 0.00 0.00 86 1015.5
20260906094507 21 69 0.0 1.6 0.00 0.00 0.00 85 1015.5
20260906093008 22 72 0.0 4.8 0.00 0.00 0.00 85 1015.4
20260906091515 22 71 0.0 4.8 0.00 0.00 0.00 86 1015.4
20260906090006 22 76 0.0 6.4 0.00 0.00 0.00 86 1015.4
20260906084505 22 71 0.0 1.6 0.00 0.00 0.00 86 1015.4
20260906083012 22 69 0.0 4.8 0.00 0.00 0.00 86 1015.3
20260906081509 22 60 0.0 0.0 0.00 0.00 0.00 86 1015.3
20260906080004 22 58 0.0 3.2 0.00 0.00 0.00 87 1015.3
20260906074503 22 56 0.0 4.8 0.00 0.00 0.00 87 1015.3
20260906073002 22 64 0.0 6.4 0.00 0.00 0.00 88 1015.3
20260906071501 22 333 0.0 4.8 0.00 0.00 0.00 88 1015.5
20260906070100 21 344 0.0 3.2 0.00 0.00 0.00 88 1015.5
20260906064600 21 344 0.0 4.8 0.00 0.00 0.00 88 1015.4
20260906063059 21 360 0.0 4.8 0.00 0.00 0.00 88 1015.4
20260906061609 21 328 0.0 4.8 0.00 0.00 0.00 88 1015.4
20260906060058 21 340 0.0 1.6 0.00 0.00 0.00 89 1015.4
20260906054558 21 263 0.0 4.8 0.00 0.00 0.00 89 1015.4
20260906053055 21 345 0.0 4.8 0.00 0.00 0.00 89 1015.3
20260906051601 21 57 0.0 4.8 0.00 0.00 0.00 89 1015.1
20260906050054 21 333 1.6 6.4 0.00 0.00 0.00 89 1015.0
20260906044551 21 5 0.0 8.0 0.00 0.00 0.00 89 1014.9
20260906043047 22 286 0.0 12.9 0.00 0.00 0.00 88 1014.7
20260906041547 22 83 3.2 9.7 0.00 0.00 0.00 88 1014.5
20260906040047 22 45 3.2 9.7 0.00 0.00 0.00 88 1014.4
20260906034545 22 42 1.6 8.0 0.00 0.00 0.00 88 1014.4
20260906033048 22 52 3.2 11.3 0.00 0.00 0.00 87 1014.4
20260906031555 22 35 3.2 11.3 0.00 0.00 0.00 87 1014.5
20260906030044 22 38 4.8 11.3 0.00 0.00 0.00 87 1014.5
20260906024542 22 82 3.2 12.9 0.00 0.00 0.00 86 1014.3
20260906023041 22 24 4.8 14.5 0.00 0.00 0.00 86 1014.3
20260906021543 22 12 3.2 12.9 0.00 0.00 0.00 86 1014.4
20260906020040 22 9 4.8 12.9 0.00 0.00 0.00 85 1014.5
20260906014540 22 72 1.6 11.3 0.00 0.00 0.00 85 1014.4
20260906013040 22 329 1.6 9.7 0.00 0.00 0.00 85 1014.5
20260906011541 22 346 3.2 14.5 0.00 0.00 0.00 85 1014.3
20260906010035 22 71 3.2 12.9 0.00 0.00 0.00 85 1014.0
20260906004534 22 65 3.2 12.9 0.00 0.00 0.00 85 1013.7
20260906003032 22 348 3.2 9.7 0.00 0.00 0.00 85 1013.6
20260906001531 22 49 3.2 14.5 0.00 0.00 0.00 84 1013.6
20260906000030 22 355 4.8 11.3 0.00 0.00 0.00 84 1013.6
20260905234529 22 355 4.8 16.1 0.00 0.00 0.00 85 1013.6
20260905233028 22 292 1.6 12.9 0.00 0.00 0.00 85 1013.7
20260905231527 22 339 4.8 17.7 0.00 0.00 0.00 85 1013.7
20260905230028 22 300 8.0 20.9 0.00 0.00 0.00 84 1013.4
20260905224532 23 28 6.4 14.5 0.00 0.00 0.00 83 1013.5
20260905223022 23 286 4.8 17.7 0.00 0.00 0.00 83 1013.4
20260905221521 23 295 4.8 17.7 0.00 0.00 0.00 83 1013.2
20260905220021 24 45 6.4 19.3 0.00 0.00 0.00 82 1013.1
20260905214520 24 121 6.4 16.1 0.00 0.00 0.00 82 1013.0
20260905213015 24 60 8.0 17.7 0.00 0.00 0.00 81 1012.7
20260905211514 25 344 4.8 14.5 0.00 0.00 0.00 81 1012.7
20260905210011 25 355 4.8 16.1 0.00 0.00 0.00 81 1012.8
20260905204516 25 57 4.8 17.7 0.00 0.00 0.00 80 1012.8
20260905203010 25 326 6.4 19.3 0.00 0.00 0.00 79 1012.7
20260905201510 25 265 4.8 14.5 0.00 0.00 0.00 78 1012.7
20260905200009 25 26 4.8 14.5 0.00 0.00 0.00 78 1012.9
20260905194509 25 319 8.0 17.7 0.00 0.00 0.00 78 1012.9
20260905193010 25 318 4.8 17.7 0.00 0.00 0.00 78 1013.0
20260905191508 25 344 6.4 14.5 0.00 0.00 0.00 78 1013.1
20260905190007 25 355 3.2 16.1 0.00 0.00 0.00 79 1013.1
20260905184507 25 347 3.2 14.5 0.00 0.00 0.00 79 1013.2
20260905183005 25 34 6.4 14.5 0.00 0.00 0.00 80 1013.1
20260905181505 25 51 4.8 16.1 0.00 0.00 0.00 80 1013.2
20260905180004 25 355 8.0 16.1 0.00 0.00 0.00 80 1013.1
20260905174606 25 283 3.2 14.5 0.00 0.00 0.00 80 1013.1
20260905173003 25 323 6.4 12.9 0.00 0.00 0.00 80 1013.1
20260905171502 25 84 4.8 12.9 0.00 0.00 0.00 80 1013.1
20260905170002 25 13 6.4 20.9 0.00 0.00 0.00 80 1013.3
20260905164501 25 329 6.4 14.5 0.00 0.00 0.00 81 1013.3
20260905163102 25 46 4.8 12.9 0.00 0.00 0.00 81 1013.3
20260905161600 25 288 3.2 16.1 0.00 0.00 0.00 82 1013.3
20260905160133 25 22 3.2 14.5 0.00 0.00 0.00 83 1013.1
20260905154559 25 17 3.2 14.5 0.00 0.00 0.00 83 1013.0
20260905153054 25 355 4.8 16.1 0.00 0.00 0.00 84 1012.8
20260905151602 25 269 4.8 12.9 0.00 0.00 0.00 84 1012.7
20260905150051 25 355 4.8 12.9 0.00 0.00 0.00 85 1012.7
20260905144551 25 317 3.2 16.1 0.00 0.00 0.00 86 1012.4
20260905143049 24 346 1.6 8.0 0.00 0.00 0.00 88 1012.3
20260905141547 23 273 3.2 12.9 0.00 0.00 0.00 89 1012.2
20260905140045 23 348 1.6 9.7 0.00 0.00 0.00 91 1012.2
20260905134545 23 308 3.2 9.7 0.00 0.00 0.00 92 1012.3
20260905133045 23 286 0.0 8.0 0.00 0.00 0.00 92 1012.5
20260905131541 23 17 3.2 9.7 0.00 0.00 0.00 92 1012.1
20260905130040 23 360 3.2 12.9 0.00 0.00 0.00 93 1012.0
20260905124540 23 317 1.6 6.4 0.00 0.00 0.00 93 1011.8
20260905123033 22 327 1.6 4.8 0.00 0.00 0.00 93 1011.5
20260905121531 22 90 1.6 6.4 0.00 0.00 0.00 93 1011.4
20260905120029 22 49 0.0 6.4 0.00 0.00 0.00 92 1011.2
20260905114528 22 344 0.0 6.4 0.00 0.00 0.00 92 1011.0